Printer-friendly version

IAU Minor Planet Center

Minor Planet Center

(27) Euterpe

Orbital Elements

The following orbital elements are taken from MPO 4876
   (27) Euterpe
Epoch 2002 Nov. 22.0 TT = JDT 2452600.5                 Goffin
M 130.44124              (2000.0)            P               Q
n   0.27418549     Peri.  356.49644     -0.02290335     -0.99935828
a   2.3466036      Node    94.81461     +0.91791191     -0.03193585
e   0.1719025      Incl.    1.58373     +0.39612265     +0.01622134
P   3.59           H    7.0           G   0.15           U   0
From 1618 observations at 79 oppositions, 1853-2000, mean residual 0".53.
An explanation of the orbital elements is available.

These orbital elements are also available in forms suitable for loading into a number of popular planetarium-type software programs.


Ephemeris

The following ephemeris is at intervals of five days. A daily ephemeris covering the same time interval is also available.

Date    TT    R. A. (2000) Decl.     Delta      r     Elong.  Phase     V
 
2003 05 01    19 13.18   -22 06.6    2.190    2.749   113.3    19.7    11.9
2003 05 06    19 14.17   -22 06.5    2.129    2.749   117.9    18.9    11.8
2003 05 11    19 14.50   -22 07.7    2.070    2.750   122.7    18.0    11.7
2003 05 16    19 14.14   -22 10.2    2.014    2.750   127.6    16.9    11.6
2003 05 21    19 13.08   -22 14.1    1.962    2.750   132.6    15.7    11.5
2003 05 26    19 11.32   -22 19.2    1.914    2.750   137.9    14.3    11.4
2003 05 31    19 08.87   -22 25.6    1.870    2.750   143.2    12.7    11.3
2003 06 05    19 05.74   -22 33.0    1.831    2.749   148.8    11.0    11.2
2003 06 10    19 02.00   -22 41.2    1.798    2.749   154.4     9.2    11.1
2003 06 15    18 57.71   -22 49.9    1.771    2.748   160.2     7.2    11.0
2003 06 20    18 52.98   -22 58.8    1.750    2.747   166.1     5.1    10.8
2003 06 25    18 47.90   -23 07.5    1.736    2.746   172.0     2.9    10.7
2003 06 30    18 42.61   -23 15.8    1.729    2.745   178.0     0.7    10.5
2003 07 05    18 37.25   -23 23.5    1.728    2.744   176.0     1.5    10.6
2003 07 10    18 31.97   -23 30.4    1.735    2.742   170.0     3.7    10.7
2003 07 15    18 26.92   -23 36.4    1.749    2.740   164.1     5.8    10.9
2003 07 20    18 22.21   -23 41.4    1.769    2.738   158.2     7.9    11.0
2003 07 25    18 17.97   -23 45.6    1.795    2.736   152.5     9.9    11.1
2003 07 30    18 14.29   -23 49.0    1.827    2.734   146.9    11.7    11.2
2003 08 04    18 11.25   -23 51.8    1.864    2.732   141.4    13.4    11.3
2003 08 09    18 08.89   -23 54.1    1.907    2.729   136.0    14.9    11.4
2003 08 14    18 07.25   -23 55.9    1.954    2.726   130.9    16.3    11.5
2003 08 19    18 06.33   -23 57.5    2.004    2.723   125.9    17.5    11.6
2003 08 24    18 06.13   -23 58.8    2.058    2.720   121.0    18.6    11.7
2003 08 29    18 06.64   -23 59.8    2.114    2.717   116.3    19.5    11.8
2003 09 03    18 07.84   -24 00.7    2.173    2.714   111.7    20.2    11.9
2003 09 08    18 09.69   -24 01.2    2.234    2.710   107.3    20.8    11.9

Back to Bright Minor Planets

Astronomical Headlines Index


Valid HTML 4.01!